Location: Newark
(33.6439°N, 114.9881°W)
Time: 20:28:36
(UTC+00:00)

Vanguard 2 Rocket - All Passes

Search period start: 19 July 2019 00:00
Search period end: 29 July 2019 00:00
Orbit: 554 x 3326 km, 32.9° (Epoch: 18 July)

Date Brightness Start Highest point End Pass type
(mag) Time Alt. Az. Time Alt. Az. Time Alt. Az.
19 Jul - 01:24:22 10° W 01:28:16 43° SSW 01:32:08 10° SE daylight
19 Jul - 03:40:01 10° SW 03:40:51 10° SSW 03:41:43 10° SSW visible
19 Jul - 17:38:41 10° SSW 17:48:04 22° SSE 17:54:42 10° ESE daylight
19 Jul - 19:52:44 10° SW 20:02:52 47° SSE 20:08:46 10° E daylight
19 Jul - 22:09:13 10° W 22:16:24 80° S 22:20:55 10° E daylight
20 Jul - 00:24:34 10° W 00:29:14 62° SSW 00:33:05 10° ESE daylight
20 Jul - 02:39:03 10° WSW 02:41:34 16° SSW 02:44:17 10° SSE daylight
20 Jul - 16:39:07 10° S 16:47:25 17° SSE 16:53:52 10° ESE daylight
20 Jul - 18:51:26 10° SW 19:02:52 39° SSE 19:09:42 10° E daylight
20 Jul - 21:07:59 10° WSW 21:16:56 72° S 21:22:08 10° E daylight
20 Jul - 23:24:21 10° W 23:30:05 78° S 23:34:10 10° ESE daylight
21 Jul - 01:39:02 10° W 01:42:28 26° SSW 01:45:51 10° SSE daylight
21 Jul - 15:41:27 10° SSE 15:46:28 12° SSE 15:50:54 10° SE daylight
21 Jul - 17:50:17 10° SSW 18:02:32 33° SSE 18:10:17 10° E daylight
21 Jul - 20:06:24 10° WSW 20:17:14 63° SSE 20:23:18 10° E daylight
21 Jul - 22:23:34 10° W 22:30:48 85° S 22:35:19 10° E daylight
22 Jul - 00:39:02 10° W 00:43:28 41° SSW 00:47:11 10° SE daylight
22 Jul - 16:49:30 10° SSW 17:01:53 27° SSE 17:10:21 10° E daylight
22 Jul - 19:04:38 10° SW 19:17:15 54° SSE 19:24:21 10° E daylight
22 Jul - 21:22:14 10° W 21:31:19 83° S 21:36:32 10° E daylight
22 Jul - 23:38:44 10° W 23:44:24 62° SSW 23:48:27 10° ESE daylight
23 Jul - 01:54:25 10° WSW 01:56:33 14° SSW 01:58:40 10° S daylight
23 Jul - 15:49:28 10° S 16:00:57 21° SSE 16:09:36 10° ESE daylight
23 Jul - 18:02:52 10° SW 18:16:54 46° SSE 18:25:10 10° E daylight
23 Jul - 20:20:27 10° WSW 20:31:35 77° S 20:37:43 10° E daylight
23 Jul - 22:37:57 10° W 22:45:11 78° S 22:49:41 10° ESE daylight
24 Jul - 00:53:44 10° W 00:57:34 25° SSW 01:00:52 10° SSE daylight
24 Jul - 14:50:49 10° S 14:59:47 15° SE 15:07:19 10° ESE daylight
24 Jul - 17:01:22 10° SW 17:16:14 39° SSE 17:25:38 10° E daylight
24 Jul - 19:18:19 10° WSW 19:31:35 69° SSE 19:38:49 10° E daylight
24 Jul - 21:36:36 10° W 21:45:42 85° S 21:50:55 10° E daylight
24 Jul - 23:53:11 10° W 23:58:36 42° SSW 00:02:31 10° SE daylight
25 Jul - 16:00:22 10° SSW 16:15:15 32° SSE 16:25:35 10° E daylight
25 Jul - 18:16:07 10° SW 18:31:13 61° SSE 18:39:45 10° E daylight
25 Jul - 20:34:43 10° W 20:45:57 85° S 20:52:06 10° E daylight
25 Jul - 22:52:19 10° W 22:59:27 63° SSW 23:03:58 10° ESE daylight
26 Jul - 01:09:10 10° WSW 01:11:29 14° SW 01:13:36 10° S daylight
26 Jul - 15:00:11 10° SSW 15:14:03 25° SE 15:24:42 10° E daylight
26 Jul - 17:14:04 10° SW 17:30:31 52° SSE 17:40:24 10° E daylight
26 Jul - 19:32:23 10° WSW 19:45:54 80° S 19:53:13 10° E daylight
26 Jul - 21:50:59 10° W 22:00:03 79° S 22:05:17 10° ESE daylight
27 Jul - 00:07:51 10° W 00:12:36 26° SSW 00:16:10 10° SSE daylight
27 Jul - 14:01:17 10° S 14:12:42 18° SE 14:22:27 10° ESE daylight
27 Jul - 16:12:27 10° SW 16:29:28 44° SSE 16:40:40 10° E daylight
27 Jul - 18:29:51 10° WSW 18:45:31 74° SSE 18:54:10 10° E daylight
27 Jul - 20:49:04 10° W 21:00:20 86° S 21:06:29 10° E daylight
27 Jul - 23:06:45 10° W 23:13:35 44° SSW 23:18:00 10° SE daylight
28 Jul - 13:05:31 10° SSE 13:11:17 12° SE 13:16:45 10° ESE daylight
28 Jul - 15:11:27 10° SSW 15:28:10 36° SSE 15:40:22 10° E daylight
28 Jul - 17:27:24 10° WSW 17:44:45 65° SSE 17:54:53 10° E daylight
28 Jul - 19:46:40 10° W 20:00:16 86° S 20:07:36 10° E daylight
28 Jul - 22:05:20 10° W 22:14:19 64° SSW 22:19:31 10° ESE daylight
